Time,TemperatureF,DewpointF,PressureIn,WindDirection,WindDirectionDegrees,WindSpeedMPH,WindSpeedGustMPH,Humidity,HourlyPrecipIn,Conditions,Clouds,dailyrainin,SoftwareType,DateUTC
2013-02-21 00:00:00,23.5,16.5,29.77,NW,313,3.0,14.0,74,0.00,,---,0.02,VWS V13.00,2013-02-21 05:00:00,
2013-02-21 00:05:00,23.5,16.5,29.77,WNW,295,11.0,14.0,74,0.00,,---,0.02,VWS V13.00,2013-02-21 05:05:00,
2013-02-21 00:10:00,23.6,16.5,29.77,WNW,285,3.0,10.0,74,0.00,,---,0.00,VWS V13.00,2013-02-21 05:10:00,
2013-02-21 00:15:00,23.5,16.5,29.77,West,265,3.0,13.0,74,0.00,,---,0.00,VWS V13.00,2013-02-21 05:15:00,
2013-02-21 00:20:00,23.3,16.6,29.77,NW,315,4.0,13.0,75,0.00,,---,0.00,VWS V13.00,2013-02-21 05:20:00,
2013-02-21 00:25:00,23.3,16.6,29.77,NW,325,5.0,13.0,75,0.00,,---,0.00,VWS V13.00,2013-02-21 05:25:00,
2013-02-21 00:30:00,23.4,16.4,29.77,WNW,300,12.0,13.0,74,0.00,,---,0.00,VWS V13.00,2013-02-21 05:30:00,
2013-02-21 00:35:00,23.3,16.2,29.77,West,271,4.0,13.0,74,0.00,,---,0.00,VWS V13.00,2013-02-21 05:35:00,
2013-02-21 00:40:00,23.4,16.4,29.77,West,268,5.0,12.0,74,0.00,,---,0.00,VWS V13.00,2013-02-21 05:40:00,
2013-02-21 00:45:00,23.5,16.1,29.77,WNW,286,3.0,12.0,73,0.00,,---,0.00,VWS V13.00,2013-02-21 05:45:00,
2013-02-21 00:50:00,23.4,16.0,29.77,West,277,4.0,12.0,73,0.00,,---,0.00,VWS V13.00,2013-02-21 05:50:00,
2013-02-21 00:55:00,23.3,15.9,29.77,WNW,286,4.0,12.0,73,0.00,,---,0.00,VWS V13.00,2013-02-21 05:55:00,
2013-02-21 01:00:00,23.3,15.9,29.77,WNW,284,1.0,12.0,73,0.00,,---,0.00,VWS V13.00,2013-02-21 06:00:00,
2013-02-21 01:05:00,23.1,16.1,29.77,WNW,290,5.0,12.0,74,0.00,,---,0.00,VWS V13.00,2013-02-21 06:05:00,
2013-02-21 01:10:00,23.0,17.8,29.77,WSW,254,5.0,9.0,80,0.00,,---,0.00,VWS V13.00,2013-02-21 06:10:00,
2013-02-21 01:15:00,23.1,15.8,29.77,WSW,240,3.0,9.0,73,0.00,,---,0.00,VWS V13.00,2013-02-21 06:15:00,
2013-02-21 01:20:00,23.2,15.8,29.77,WNW,283,2.0,11.0,73,0.00,,---,0.00,VWS V13.00,2013-02-21 06:20:00,
2013-02-21 01:25:00,23.1,15.8,29.77,WNW,294,6.0,12.0,73,0.00,,---,0.00,VWS V13.00,2013-02-21 06:25:00,
2013-02-21 01:30:00,23.0,16.0,29.77,WNW,283,2.0,12.0,74,0.00,,---,0.00,VWS V13.00,2013-02-21 06:30:00,
2013-02-21 01:35:00,22.9,15.6,29.77,WNW,283,4.0,12.0,73,0.00,,---,0.00,VWS V13.00,2013-02-21 06:35:00,
2013-02-21 01:40:00,23.0,15.6,29.77,WNW,286,5.0,12.0,73,0.00,,---,0.00,VWS V13.00,2013-02-21 06:40:00,
2013-02-21 01:45:00,23.0,15.6,29.77,West,272,3.0,12.0,73,0.00,,---,0.00,VWS V13.00,2013-02-21 06:45:00,
2013-02-21 01:50:00,23.1,15.8,29.77,West,281,10.0,12.0,73,0.00,,---,0.00,VWS V13.00,2013-02-21 06:50:00,
2013-02-21 01:55:00,23.1,15.8,29.77,NW,311,1.0,13.0,73,0.00,,---,0.00,VWS V13.00,2013-02-21 06:55:00,
2013-02-21 02:00:00,23.0,15.6,29.77,WNW,301,2.0,13.0,73,0.00,,---,0.00,VWS V13.00,2013-02-21 07:00:00,
2013-02-21 02:05:00,23.0,15.6,29.77,WNW,284,5.0,15.0,73,0.00,,---,0.00,VWS V13.00,2013-02-21 07:05:00,
2013-02-21 02:10:00,23.0,15.6,29.77,WNW,296,4.0,7.0,73,0.00,,---,0.00,VWS V13.00,2013-02-21 07:10:00,
2013-02-21 02:15:00,22.9,15.6,29.77,WNW,295,6.0,7.0,73,0.00,,---,0.00,VWS V13.00,2013-02-21 07:15:00,
2013-02-21 02:20:00,22.8,15.5,29.77,West,281,6.0,12.0,73,0.00,,---,0.00,VWS V13.00,2013-02-21 07:20:00,
2013-02-21 02:25:00,22.8,15.5,29.77,West,275,4.0,12.0,73,0.00,,---,0.00,VWS V13.00,2013-02-21 07:25:00,
2013-02-21 02:30:00,22.8,15.5,29.77,West,275,3.0,12.0,73,0.00,,---,0.00,VWS V13.00,2013-02-21 07:30:00,
2013-02-21 02:35:00,22.8,15.1,29.77,SW,236,2.0,12.0,72,0.00,,---,0.00,VWS V13.00,2013-02-21 07:35:00,
2013-02-21 02:40:00,22.7,15.4,29.77,WNW,284,2.0,9.0,73,0.00,,---,0.00,VWS V13.00,2013-02-21 07:40:00,
2013-02-21 02:45:00,22.6,15.3,29.77,West,265,4.0,9.0,73,0.00,,---,0.00,VWS V13.00,2013-02-21 07:45:00,
2013-02-21 02:50:00,22.7,15.1,29.77,WSW,257,10.0,11.0,72,0.00,,---,0.00,VWS V13.00,2013-02-21 07:50:00,
2013-02-21 02:55:00,22.7,14.7,29.77,West,280,3.0,11.0,71,0.00,,---,0.00,VWS V13.00,2013-02-21 07:55:00,
2013-02-21 03:00:00,22.6,14.6,29.77,WNW,299,3.0,11.0,71,0.00,,---,0.00,VWS V13.00,2013-02-21 08:00:00,
2013-02-21 03:05:00,22.7,14.4,29.77,West,269,4.0,15.0,70,0.00,,---,0.00,VWS V13.00,2013-02-21 08:05:00,
2013-02-21 03:10:00,22.8,14.2,29.77,WNW,300,3.0,13.0,69,0.00,,---,0.00,VWS V13.00,2013-02-21 08:10:00,
2013-02-21 03:15:00,22.8,14.2,29.77,WSW,240,2.0,13.0,69,0.00,,---,0.00,VWS V13.00,2013-02-21 08:15:00,
2013-02-21 03:20:00,22.7,14.1,29.77,West,269,3.0,13.0,69,0.00,,---,0.00,VWS V13.00,2013-02-21 08:20:00,
2013-02-21 03:25:00,22.8,14.2,29.77,SW,234,5.0,14.0,69,0.00,,---,0.00,VWS V13.00,2013-02-21 08:25:00,
2013-02-21 03:30:00,22.8,14.2,29.77,WSW,246,0.0,14.0,69,0.00,,---,0.00,VWS V13.00,2013-02-21 08:30:00,
2013-02-21 03:35:00,22.7,14.1,29.77,West,280,4.0,14.0,69,0.00,,---,0.00,VWS V13.00,2013-02-21 08:35:00,
2013-02-21 03:40:00,22.6,14.0,29.77,WNW,292,4.0,7.0,69,0.00,,---,0.00,VWS V13.00,2013-02-21 08:40:00,
2013-02-21 03:45:00,22.5,13.9,29.77,West,273,2.0,11.0,69,0.00,,---,0.00,VWS V13.00,2013-02-21 08:45:00,
2013-02-21 03:50:00,22.3,14.0,29.78,West,266,3.0,11.0,70,0.00,,---,0.00,VWS V13.00,2013-02-21 08:50:00,
2013-02-21 03:55:00,22.2,13.9,29.78,West,273,4.0,11.0,70,0.00,,---,0.00,VWS V13.00,2013-02-21 08:55:00,
2013-02-21 04:00:00,22.1,13.8,29.78,WNW,292,3.0,11.0,70,0.00,,---,0.00,VWS V13.00,2013-02-21 09:00:00,
2013-02-21 04:05:00,22.0,14.1,29.78,West,275,3.0,11.0,71,0.00,,---,0.00,VWS V13.00,2013-02-21 09:05:00,
2013-02-21 04:10:00,21.9,14.0,29.78,West,281,4.0,10.0,71,0.00,,---,0.00,VWS V13.00,2013-02-21 09:10:00,
2013-02-21 04:15:00,21.8,13.9,29.78,West,276,3.0,13.0,71,0.00,,---,0.00,VWS V13.00,2013-02-21 09:15:00,
2013-02-21 04:20:00,21.7,13.8,29.78,WSW,256,5.0,13.0,71,0.00,,---,0.00,VWS V13.00,2013-02-21 09:20:00,
2013-02-21 04:25:00,21.7,13.4,29.78,WNW,290,2.0,13.0,70,0.00,,---,0.00,VWS V13.00,2013-02-21 09:25:00,
2013-02-21 04:30:00,21.6,13.3,29.78,West,278,2.0,13.0,70,0.00,,---,0.00,VWS V13.00,2013-02-21 09:30:00,
2013-02-21 04:35:00,21.7,13.4,29.78,West,281,7.0,13.0,70,0.00,,---,0.00,VWS V13.00,2013-02-21 09:35:00,
2013-02-21 04:40:00,21.7,13.1,29.78,West,277,3.0,14.0,69,0.00,,---,0.00,VWS V13.00,2013-02-21 09:40:00,
2013-02-21 04:45:00,21.6,13.0,29.78,WNW,288,0.0,14.0,69,0.00,,---,0.00,VWS V13.00,2013-02-21 09:45:00,
2013-02-21 04:50:00,21.5,12.9,29.78,West,275,3.0,14.0,69,0.00,,---,0.00,VWS V13.00,2013-02-21 09:50:00,
2013-02-21 04:55:00,21.5,12.9,29.79,West,279,7.0,14.0,69,0.00,,---,0.00,VWS V13.00,2013-02-21 09:55:00,
2013-02-21 05:00:00,21.3,12.7,29.79,WNW,286,2.0,14.0,69,0.00,,---,0.00,VWS V13.00,2013-02-21 10:00:00,
2013-02-21 05:05:00,21.3,12.4,29.79,West,268,6.0,14.0,68,0.00,,---,0.00,VWS V13.00,2013-02-21 10:05:00,
2013-02-21 05:10:00,21.3,12.4,29.79,West,279,4.0,7.0,68,0.00,,---,0.00,VWS V13.00,2013-02-21 10:10:00,
2013-02-21 05:15:00,21.3,12.4,29.80,West,275,2.0,8.0,68,0.00,,---,0.00,VWS V13.00,2013-02-21 10:15:00,
2013-02-21 05:20:00,21.2,12.3,29.80,West,281,4.0,11.0,68,0.00,,---,0.00,VWS V13.00,2013-02-21 10:20:00,
2013-02-21 05:25:00,21.1,12.5,29.80,WNW,290,0.0,11.0,69,0.00,,---,0.00,VWS V13.00,2013-02-21 10:25:00,
2013-02-21 05:30:00,20.9,12.4,29.80,North,350,4.0,11.0,69,0.00,,---,0.00,VWS V13.00,2013-02-21 10:30:00,
2013-02-21 05:35:00,20.9,12.4,29.80,NW,304,1.0,11.0,69,0.00,,---,0.00,VWS V13.00,2013-02-21 10:35:00,
2013-02-21 05:39:00,20.9,12.0,29.81,West,261,2.0,7.0,68,0.00,,---,0.00,VWS V13.00,2013-02-21 10:39:00,
2013-02-21 05:44:00,21.0,12.1,29.81,WNW,299,5.0,9.0,68,0.00,,---,0.00,VWS V13.00,2013-02-21 10:44:00,
2013-02-21 05:49:00,20.9,12.4,29.81,NW,309,5.0,9.0,69,0.00,,---,0.00,VWS V13.00,2013-02-21 10:49:00,
2013-02-21 05:54:00,20.8,12.2,29.80,West,275,3.0,10.0,69,0.00,,---,0.00,VWS V13.00,2013-02-21 10:54:00,
2013-02-21 05:59:00,20.7,12.1,29.81,NW,324,3.0,10.0,69,0.00,,---,0.00,VWS V13.00,2013-02-21 10:59:00,
2013-02-21 06:04:00,20.6,12.4,29.81,West,275,4.0,10.0,70,0.00,,---,0.00,VWS V13.00,2013-02-21 11:04:00,
2013-02-21 06:09:00,20.5,12.3,29.82,North,355,6.0,7.0,70,0.00,,---,0.00,VWS V13.00,2013-02-21 11:09:00,
2013-02-21 06:14:00,20.4,12.2,29.82,West,280,5.0,10.0,70,0.00,,---,0.00,VWS V13.00,2013-02-21 11:14:00,
2013-02-21 06:19:00,20.3,12.1,29.82,WNW,291,3.0,10.0,70,0.00,,---,0.00,VWS V13.00,2013-02-21 11:19:00,
2013-02-21 06:24:00,20.3,12.1,29.82,WNW,285,4.0,10.0,70,0.00,,---,0.00,VWS V13.00,2013-02-21 11:24:00,
2013-02-21 06:29:00,20.3,12.1,29.82,WNW,293,3.0,10.0,70,0.00,,---,0.00,VWS V13.00,2013-02-21 11:29:00,
2013-02-21 06:34:00,20.3,14.0,29.82,NW,320,4.0,10.0,76,0.00,,---,0.00,VWS V13.00,2013-02-21 11:34:00,
2013-02-21 06:39:00,20.3,11.8,29.82,West,273,3.0,7.0,69,0.00,,---,0.00,VWS V13.00,2013-02-21 11:39:00,
2013-02-21 06:44:00,20.2,12.0,29.82,West,268,5.0,7.0,70,0.00,,---,0.00,VWS V13.00,2013-02-21 11:44:00,
2013-02-21 06:49:00,20.1,11.6,29.82,West,281,1.0,7.0,69,0.00,,---,0.00,VWS V13.00,2013-02-21 11:49:00,
2013-02-21 06:54:00,19.9,11.4,29.82,WNW,295,5.0,9.0,69,0.00,,---,0.00,VWS V13.00,2013-02-21 11:54:00,
2013-02-21 06:59:00,19.9,11.4,29.82,West,281,2.0,9.0,69,0.00,,---,0.00,VWS V13.00,2013-02-21 11:59:00,
2013-02-21 07:04:00,19.9,11.4,29.82,NW,326,2.0,9.0,69,0.00,,---,0.00,VWS V13.00,2013-02-21 12:04:00,
2013-02-21 07:09:00,19.9,11.7,29.82,NNW,327,6.0,12.0,70,0.00,,---,0.00,VWS V13.00,2013-02-21 12:09:00,
2013-02-21 07:14:00,20.0,11.5,29.83,WNW,295,6.0,14.0,69,0.00,,---,0.00,VWS V13.00,2013-02-21 12:14:00,
2013-02-21 07:19:00,20.2,11.7,29.83,North,350,4.0,14.0,69,0.00,,---,0.00,VWS V13.00,2013-02-21 12:19:00,
2013-02-21 07:24:00,20.2,11.4,29.83,West,280,3.0,14.0,68,0.00,,---,0.00,VWS V13.00,2013-02-21 12:24:00,
2013-02-21 07:29:00,20.3,11.1,29.83,WNW,296,7.0,14.0,67,0.00,,---,0.00,VWS V13.00,2013-02-21 12:29:00,
2013-02-21 07:34:00,20.4,11.2,29.83,WNW,292,2.0,14.0,67,0.00,,---,0.00,VWS V13.00,2013-02-21 12:34:00,
2013-02-21 07:39:00,20.4,11.2,29.83,WNW,286,5.0,12.0,67,0.00,,---,0.00,VWS V13.00,2013-02-21 12:39:00,
2013-02-21 07:44:00,20.5,11.3,29.84,West,263,0.0,12.0,67,0.00,,---,0.00,VWS V13.00,2013-02-21 12:44:00,
2013-02-21 07:49:00,20.7,11.1,29.84,WNW,299,1.0,12.0,66,0.00,,---,0.00,VWS V13.00,2013-02-21 12:49:00,
2013-02-21 07:54:00,20.6,11.1,29.84,NW,307,6.0,16.0,66,0.00,,---,0.00,VWS V13.00,2013-02-21 12:54:00,
2013-02-21 07:59:00,20.4,10.5,29.84,WNW,286,7.0,16.0,65,0.00,,---,0.00,VWS V13.00,2013-02-21 12:59:00,
2013-02-21 08:04:00,20.1,10.6,29.85,WNW,290,7.0,16.0,66,0.00,,---,0.00,VWS V13.00,2013-02-21 13:04:00,
2013-02-21 08:09:00,19.9,10.1,29.84,WNW,290,2.0,10.0,65,0.00,,---,0.00,VWS V13.00,2013-02-21 13:09:00,
2013-02-21 08:14:00,20.0,10.1,29.84,West,262,4.0,14.0,65,0.00,,---,0.00,VWS V13.00,2013-02-21 13:14:00,
2013-02-21 08:19:00,20.1,10.2,29.84,WSW,257,12.0,14.0,65,0.00,,---,0.00,VWS V13.00,2013-02-21 13:19:00,
2013-02-21 08:24:00,20.2,10.3,29.84,West,270,6.0,15.0,65,0.00,,---,0.00,VWS V13.00,2013-02-21 13:24:00,
2013-02-21 08:29:00,20.4,10.2,29.84,West,279,3.0,15.0,64,0.00,,---,0.00,VWS V13.00,2013-02-21 13:29:00,
2013-02-21 08:34:00,20.6,10.0,29.84,NW,306,4.0,16.0,63,0.00,,---,0.00,VWS V13.00,2013-02-21 13:34:00,
2013-02-21 08:39:00,20.9,10.3,29.84,WNW,286,5.0,10.0,63,0.00,,---,0.00,VWS V13.00,2013-02-21 13:39:00,
2013-02-21 08:44:00,21.3,10.7,29.83,NNW,331,8.0,11.0,63,0.00,,---,0.00,VWS V13.00,2013-02-21 13:44:00,
2013-02-21 08:49:00,21.3,10.0,29.84,NNW,327,6.0,17.0,61,0.00,,---,0.00,VWS V13.00,2013-02-21 13:49:00,
2013-02-21 08:54:00,21.3,10.0,29.84,NW,321,7.0,18.0,61,0.00,,---,0.00,VWS V13.00,2013-02-21 13:54:00,
2013-02-21 08:59:00,21.4,10.4,29.83,WNW,299,2.0,22.0,62,0.00,,---,0.00,VWS V13.00,2013-02-21 13:59:00,
2013-02-21 09:04:00,21.8,10.8,29.83,NW,321,1.0,22.0,62,0.00,,---,0.00,VWS V13.00,2013-02-21 14:04:00,
2013-02-21 09:09:00,22.1,10.7,29.83,NW,325,6.0,11.0,61,0.00,,---,0.00,VWS V13.00,2013-02-21 14:09:00,
2013-02-21 09:14:00,22.1,10.4,29.84,WNW,288,12.0,20.0,60,0.00,,---,0.00,VWS V13.00,2013-02-21 14:14:00,
2013-02-21 09:19:00,22.2,10.8,29.83,WNW,291,3.0,20.0,61,0.00,,---,0.00,VWS V13.00,2013-02-21 14:19:00,
2013-02-21 09:24:00,22.6,10.8,29.84,WNW,288,9.0,20.0,60,0.00,,---,0.00,VWS V13.00,2013-02-21 14:24:00,
2013-02-21 09:29:00,23.3,11.5,29.85,NNE,12,9.0,20.0,60,0.00,,---,0.00,VWS V13.00,2013-02-21 14:29:00,
2013-02-21 09:34:00,23.3,11.1,29.84,NNE,28,14.0,20.0,59,0.00,,---,0.00,VWS V13.00,2013-02-21 14:34:00,
2013-02-21 09:39:00,23.2,11.0,29.84,West,281,3.0,17.0,59,0.00,,---,0.00,VWS V13.00,2013-02-21 14:39:00,
2013-02-21 09:44:00,23.5,11.3,29.84,NE,34,7.0,19.0,59,0.00,,---,0.00,VWS V13.00,2013-02-21 14:44:00,
2013-02-21 09:49:00,23.9,11.7,29.84,NNW,333,14.0,19.0,59,0.00,,---,0.00,VWS V13.00,2013-02-21 14:49:00,
2013-02-21 09:54:00,24.1,11.5,29.84,NNW,333,5.0,19.0,58,0.00,,---,0.00,VWS V13.00,2013-02-21 14:54:00,
2013-02-21 09:59:00,23.9,11.3,29.85,NW,310,4.0,19.0,58,0.00,,---,0.00,VWS V13.00,2013-02-21 14:59:00,
2013-02-21 10:04:00,24.0,11.4,29.85,WNW,302,1.0,19.0,58,0.00,,---,0.00,VWS V13.00,2013-02-21 15:04:00,
2013-02-21 10:09:00,23.8,11.2,29.85,NW,306,1.0,10.0,58,0.00,,---,0.00,VWS V13.00,2013-02-21 15:09:00,
2013-02-21 10:14:00,23.6,11.4,29.85,West,277,6.0,16.0,59,0.00,,---,0.00,VWS V13.00,2013-02-21 15:14:00,
2013-02-21 10:19:00,23.8,11.6,29.85,WNW,291,12.0,17.0,59,0.00,,---,0.00,VWS V13.00,2013-02-21 15:19:00,
2013-02-21 10:24:00,24.1,11.9,29.85,WNW,300,1.0,17.0,59,0.00,,---,0.00,VWS V13.00,2013-02-21 15:24:00,
2013-02-21 10:29:00,24.0,11.4,29.85,NW,310,8.0,19.0,58,0.00,,---,0.00,VWS V13.00,2013-02-21 15:29:00,
2013-02-21 10:34:00,24.3,12.4,29.86,NW,310,5.0,19.0,60,0.00,,---,0.00,VWS V13.00,2013-02-21 15:34:00,
2013-02-21 10:39:00,24.3,12.4,29.86,NW,323,10.0,14.0,60,0.00,,---,0.00,VWS V13.00,2013-02-21 15:39:00,
2013-02-21 10:44:00,24.3,12.4,29.86,NNW,346,6.0,15.0,60,0.00,,---,0.00,VWS V13.00,2013-02-21 15:44:00,
2013-02-21 10:49:00,24.4,12.5,29.86,WNW,293,4.0,20.0,60,0.00,,---,0.00,VWS V13.00,2013-02-21 15:49:00,
2013-02-21 10:54:00,24.1,12.2,29.86,NW,323,4.0,20.0,60,0.00,,---,0.00,VWS V13.00,2013-02-21 15:54:00,
2013-02-21 10:59:00,23.6,12.1,29.86,West,263,4.0,20.0,61,0.00,,---,0.00,VWS V13.00,2013-02-21 15:59:00,
2013-02-21 11:04:00,24.0,12.5,29.86,North,349,5.0,20.0,61,0.00,,---,0.00,VWS V13.00,2013-02-21 16:04:00,
2013-02-21 11:09:00,24.8,13.6,29.86,NNW,341,6.0,8.0,62,0.00,,---,0.00,VWS V13.00,2013-02-21 16:09:00,
2013-02-21 11:14:00,25.8,13.9,29.86,NNW,345,3.0,17.0,60,0.00,,---,0.00,VWS V13.00,2013-02-21 16:14:00,
2013-02-21 11:19:00,25.8,13.5,29.86,WNW,286,10.0,17.0,59,0.00,,---,0.00,VWS V13.00,2013-02-21 16:19:00,
2013-02-21 11:24:00,25.3,13.4,29.86,North,360,5.0,17.0,60,0.00,,---,0.00,VWS V13.00,2013-02-21 16:24:00,
2013-02-21 11:29:00,25.3,14.1,29.86,West,278,6.0,17.0,62,0.00,,---,0.00,VWS V13.00,2013-02-21 16:29:00,
2013-02-21 11:34:00,25.6,14.4,29.85,WNW,299,16.0,17.0,62,0.00,,---,0.00,VWS V13.00,2013-02-21 16:34:00,
2013-02-21 11:39:00,26.0,14.0,29.86,WNW,294,5.0,12.0,60,0.00,,---,0.00,VWS V13.00,2013-02-21 16:39:00,
2013-02-21 11:44:00,26.6,15.0,29.86,NNE,27,4.0,16.0,61,0.00,,---,0.00,VWS V13.00,2013-02-21 16:44:00,
2013-02-21 11:49:00,26.9,14.5,29.86,NW,314,8.0,16.0,59,0.00,,---,0.00,VWS V13.00,2013-02-21 16:49:00,
2013-02-21 11:54:00,26.6,14.6,29.86,NW,323,12.0,20.0,60,0.00,,---,0.00,VWS V13.00,2013-02-21 16:54:00,
2013-02-21 11:59:00,26.2,14.2,29.87,NNW,348,10.0,20.0,60,0.00,,---,0.00,VWS V13.00,2013-02-21 16:59:00,
2013-02-21 12:04:00,26.0,14.4,29.87,West,278,10.0,20.0,61,0.00,,---,0.00,VWS V13.00,2013-02-21 17:04:00,
2013-02-21 12:09:00,26.1,15.6,29.87,WNW,296,8.0,14.0,64,0.00,,---,0.00,VWS V13.00,2013-02-21 17:09:00,
2013-02-21 12:14:00,26.0,14.8,29.87,WNW,295,10.0,15.0,62,0.00,,---,0.00,VWS V13.00,2013-02-21 17:14:00,
2013-02-21 12:19:00,25.7,14.5,29.87,ENE,61,7.0,15.0,62,0.00,,---,0.00,VWS V13.00,2013-02-21 17:19:00,
2013-02-21 12:24:00,26.0,14.8,29.87,WNW,294,6.0,15.0,62,0.00,,---,0.00,VWS V13.00,2013-02-21 17:24:00,
2013-02-21 12:29:00,26.0,14.4,29.87,WNW,294,6.0,16.0,61,0.00,,---,0.00,VWS V13.00,2013-02-21 17:29:00,
2013-02-21 12:34:00,26.2,15.0,29.87,NW,313,9.0,16.0,62,0.00,,---,0.00,VWS V13.00,2013-02-21 17:34:00,
2013-02-21 12:39:00,26.4,14.8,29.87,NNW,334,7.0,12.0,61,0.00,,---,0.00,VWS V13.00,2013-02-21 17:39:00,
2013-02-21 12:44:00,26.6,14.2,29.87,WNW,303,6.0,16.0,59,0.00,,---,0.00,VWS V13.00,2013-02-21 17:44:00,
2013-02-21 12:49:00,26.6,14.6,29.87,NNW,329,5.0,16.0,60,0.00,,---,0.00,VWS V13.00,2013-02-21 17:49:00,
2013-02-21 12:54:00,27.0,15.0,29.87,WNW,296,3.0,16.0,60,0.00,,---,0.00,VWS V13.00,2013-02-21 17:54:00,
2013-02-21 12:59:00,27.2,14.4,29.87,NNW,338,11.0,17.0,58,0.00,,---,0.00,VWS V13.00,2013-02-21 17:59:00,
2013-02-21 13:04:00,27.6,14.8,29.87,WNW,299,4.0,17.0,58,0.00,,---,0.00,VWS V13.00,2013-02-21 18:04:00,
2013-02-21 13:09:00,27.7,15.3,29.87,NW,321,10.0,19.0,59,0.00,,---,0.00,VWS V13.00,2013-02-21 18:09:00,
2013-02-21 13:14:00,27.9,14.6,29.87,NW,309,4.0,19.0,57,0.00,,---,0.00,VWS V13.00,2013-02-21 18:14:00,
2013-02-21 13:19:00,28.3,15.4,29.87,NNW,334,5.0,19.0,58,0.00,,---,0.00,VWS V13.00,2013-02-21 18:19:00,
2013-02-21 13:24:00,28.1,14.8,29.87,North,349,6.0,19.0,57,0.00,,---,0.00,VWS V13.00,2013-02-21 18:24:00,
2013-02-21 13:29:00,27.7,14.9,29.87,NNW,346,4.0,19.0,58,0.00,,---,0.00,VWS V13.00,2013-02-21 18:29:00,
2013-02-21 13:34:00,27.4,15.0,29.87,NW,309,8.0,19.0,59,0.00,,---,0.00,VWS V13.00,2013-02-21 18:34:00,
2013-02-21 13:39:00,27.3,14.5,29.87,NNW,330,10.0,14.0,58,0.00,,---,0.00,VWS V13.00,2013-02-21 18:39:00,
2013-02-21 13:44:00,27.6,15.2,29.87,NW,321,4.0,14.0,59,0.00,,---,0.00,VWS V13.00,2013-02-21 18:44:00,
2013-02-21 13:49:00,28.3,15.4,29.87,NW,317,5.0,18.0,58,0.00,,---,0.00,VWS V13.00,2013-02-21 18:49:00,
2013-02-21 13:54:00,28.8,15.5,29.87,WNW,291,4.0,18.0,57,0.00,,---,0.00,VWS V13.00,2013-02-21 18:54:00,
2013-02-21 13:59:00,28.8,15.1,29.88,NW,309,4.0,18.0,56,0.00,,---,0.00,VWS V13.00,2013-02-21 18:59:00,
2013-02-21 14:04:00,29.0,15.7,29.88,WNW,287,3.0,18.0,57,0.00,,---,0.00,VWS V13.00,2013-02-21 19:04:00,
2013-02-21 14:09:00,29.0,15.3,29.88,WNW,302,5.0,14.0,56,0.00,,---,0.00,VWS V13.00,2013-02-21 19:09:00,
2013-02-21 14:14:00,29.7,15.5,29.88,WNW,290,7.0,16.0,55,0.00,,---,0.00,VWS V13.00,2013-02-21 19:14:00,
2013-02-21 14:19:00,29.3,15.1,29.88,WNW,292,3.0,16.0,55,0.00,,---,0.00,VWS V13.00,2013-02-21 19:19:00,
2013-02-21 14:24:00,29.6,15.8,29.88,NNW,331,4.0,19.0,56,0.00,,---,0.00,VWS V13.00,2013-02-21 19:24:00,
2013-02-21 14:29:00,29.9,15.7,29.89,NW,322,5.0,19.0,55,0.00,,---,0.00,VWS V13.00,2013-02-21 19:29:00,
2013-02-21 14:34:00,29.3,15.1,29.89,WNW,285,6.0,19.0,55,0.00,,---,0.00,VWS V13.00,2013-02-21 19:34:00,
2013-02-21 14:39:00,29.1,15.4,29.89,NW,313,11.0,15.0,56,0.00,,---,0.00,VWS V13.00,2013-02-21 19:39:00,
2013-02-21 14:44:00,28.7,15.4,29.89,NW,319,4.0,21.0,57,0.00,,---,0.00,VWS V13.00,2013-02-21 19:44:00,
2013-02-21 14:49:00,28.8,15.1,29.90,NW,324,11.0,21.0,56,0.00,,---,0.00,VWS V13.00,2013-02-21 19:49:00,
2013-02-21 14:54:00,28.6,14.9,29.90,NW,321,7.0,21.0,56,0.00,,---,0.00,VWS V13.00,2013-02-21 19:54:00,
2013-02-21 14:59:00,28.3,14.6,29.90,NW,307,5.0,21.0,56,0.00,,---,0.00,VWS V13.00,2013-02-21 19:59:00,
2013-02-21 15:04:00,28.5,15.2,29.91,WNW,302,5.0,21.0,57,0.00,,---,0.00,VWS V13.00,2013-02-21 20:04:00,
2013-02-21 15:09:00,28.2,14.5,29.91,NNW,346,3.0,14.0,56,0.00,,---,0.00,VWS V13.00,2013-02-21 20:09:00,
2013-02-21 15:14:00,28.5,15.2,29.91,NNW,328,9.0,16.0,57,0.00,,---,0.00,VWS V13.00,2013-02-21 20:14:00,
2013-02-21 15:19:00,28.5,14.8,29.92,WNW,292,9.0,17.0,56,0.00,,---,0.00,VWS V13.00,2013-02-21 20:19:00,
2013-02-21 15:24:00,28.4,15.5,29.92,NNE,13,4.0,17.0,58,0.00,,---,0.00,VWS V13.00,2013-02-21 20:24:00,
2013-02-21 15:29:00,28.2,14.5,29.92,NNW,327,4.0,17.0,56,0.00,,---,0.00,VWS V13.00,2013-02-21 20:29:00,
2013-02-21 15:34:00,28.1,14.8,29.93,NNW,327,11.0,19.0,57,0.00,,---,0.00,VWS V13.00,2013-02-21 20:34:00,
2013-02-21 15:39:00,28.2,14.9,29.93,NNW,348,1.0,16.0,57,0.00,,---,0.00,VWS V13.00,2013-02-21 20:39:00,
2013-02-21 15:44:00,28.1,14.8,29.93,WNW,284,5.0,21.0,57,0.00,,---,0.00,VWS V13.00,2013-02-21 20:44:00,
2013-02-21 15:49:00,27.8,15.0,29.94,NNW,334,5.0,21.0,58,0.00,,---,0.00,VWS V13.00,2013-02-21 20:49:00,
2013-02-21 15:54:00,27.6,14.8,29.94,WNW,300,4.0,21.0,58,0.00,,---,0.00,VWS V13.00,2013-02-21 20:54:00,
2013-02-21 15:59:00,27.8,15.0,29.95,NNE,22,11.0,21.0,58,0.00,,---,0.00,VWS V13.00,2013-02-21 20:59:00,
2013-02-21 16:04:00,27.6,14.8,29.95,WNW,298,7.0,21.0,58,0.00,,---,0.00,VWS V13.00,2013-02-21 21:04:00,
2013-02-21 16:09:00,27.5,15.1,29.96,NNW,347,7.0,16.0,59,0.00,,---,0.00,VWS V13.00,2013-02-21 21:09:00,
2013-02-21 16:14:00,27.3,14.5,29.96,NNW,330,10.0,16.0,58,0.00,,---,0.00,VWS V13.00,2013-02-21 21:14:00,
2013-02-21 16:19:00,27.2,14.8,29.97,North,360,6.0,17.0,59,0.00,,---,0.00,VWS V13.00,2013-02-21 21:19:00,
2013-02-21 16:24:00,27.0,15.0,29.97,WNW,303,4.0,17.0,60,0.00,,---,0.00,VWS V13.00,2013-02-21 21:24:00,
2013-02-21 16:29:00,26.8,15.2,29.97,NW,319,10.0,18.0,61,0.00,,---,0.00,VWS V13.00,2013-02-21 21:29:00,
2013-02-21 16:34:00,26.4,14.4,29.98,North,355,7.0,18.0,60,0.00,,---,0.00,VWS V13.00,2013-02-21 21:34:00,
2013-02-21 16:39:00,25.9,14.7,29.98,North,360,10.0,16.0,62,0.00,,---,0.00,VWS V13.00,2013-02-21 21:39:00,
2013-02-21 16:44:00,25.6,14.8,29.99,WNW,296,4.0,16.0,63,0.00,,---,0.00,VWS V13.00,2013-02-21 21:44:00,
2013-02-21 16:49:00,25.3,14.1,29.99,NW,309,6.0,19.0,62,0.00,,---,0.00,VWS V13.00,2013-02-21 21:49:00,
2013-02-21 16:54:00,25.0,14.2,30.00,NW,326,2.0,19.0,63,0.00,,---,0.00,VWS V13.00,2013-02-21 21:54:00,
2013-02-21 16:59:00,24.8,14.4,30.00,NNW,348,4.0,19.0,64,0.00,,---,0.00,VWS V13.00,2013-02-21 21:59:00,
2013-02-21 17:04:00,24.5,14.4,30.01,NW,325,5.0,19.0,65,0.00,,---,0.00,VWS V13.00,2013-02-21 22:04:00,
2013-02-21 17:09:00,24.2,14.1,30.01,NNW,333,3.0,14.0,65,0.00,,---,0.00,VWS V13.00,2013-02-21 22:09:00,
2013-02-21 17:14:00,23.9,13.9,30.01,WNW,292,6.0,18.0,65,0.00,,---,0.00,VWS V13.00,2013-02-21 22:14:00,
2013-02-21 17:19:00,23.7,14.0,30.01,NNW,336,10.0,18.0,66,0.00,,---,0.00,VWS V13.00,2013-02-21 22:19:00,
2013-02-21 17:24:00,23.4,14.1,30.02,NNW,346,6.0,18.0,67,0.00,,---,0.00,VWS V13.00,2013-02-21 22:24:00,
2013-02-21 17:29:00,23.1,13.8,30.02,NNW,331,12.0,18.0,67,0.00,,---,0.00,VWS V13.00,2013-02-21 22:29:00,
2013-02-21 17:34:00,22.9,13.6,30.02,North,349,8.0,18.0,67,0.00,,---,0.00,VWS V13.00,2013-02-21 22:34:00,
2013-02-21 17:39:00,22.7,13.7,30.03,NNW,338,3.0,13.0,68,0.00,,---,0.00,VWS V13.00,2013-02-21 22:39:00,
2013-02-21 17:44:00,22.5,13.9,30.03,NW,323,3.0,15.0,69,0.00,,---,0.00,VWS V13.00,2013-02-21 22:44:00,
2013-02-21 17:49:00,22.4,13.8,30.04,NW,325,6.0,15.0,69,0.00,,---,0.00,VWS V13.00,2013-02-21 22:49:00,
2013-02-21 17:54:00,22.2,13.9,30.04,NW,326,5.0,17.0,70,0.00,,---,0.00,VWS V13.00,2013-02-21 22:54:00,
2013-02-21 17:59:00,22.1,13.8,30.04,NNW,338,9.0,17.0,70,0.00,,---,0.00,VWS V13.00,2013-02-21 22:59:00,
2013-02-21 18:04:00,22.0,13.7,30.04,NNW,327,2.0,18.0,70,0.00,,---,0.00,VWS V13.00,2013-02-21 23:04:00,
2013-02-21 18:09:00,22.0,13.7,30.05,NW,318,5.0,12.0,70,0.00,,---,0.00,VWS V13.00,2013-02-21 23:09:00,
2013-02-21 18:14:00,21.9,14.0,30.06,NW,307,3.0,12.0,71,0.00,,---,0.00,VWS V13.00,2013-02-21 23:14:00,
2013-02-21 18:19:00,21.9,14.0,30.06,NNW,338,4.0,12.0,71,0.00,,---,0.00,VWS V13.00,2013-02-21 23:19:00,
2013-02-21 18:24:00,21.8,13.9,30.06,NNW,348,4.0,14.0,71,0.00,,---,0.00,VWS V13.00,2013-02-21 23:24:00,
2013-02-21 18:29:00,21.8,14.2,30.07,NNW,348,4.0,17.0,72,0.00,,---,0.00,VWS V13.00,2013-02-21 23:29:00,
2013-02-21 18:34:00,21.7,14.1,30.07,NNW,336,4.0,17.0,72,0.00,,---,0.00,VWS V13.00,2013-02-21 23:34:00,
2013-02-21 18:39:00,21.7,14.1,30.07,North,350,3.0,16.0,72,0.00,,---,0.00,VWS V13.00,2013-02-21 23:39:00,
2013-02-21 18:44:00,21.6,14.0,30.08,NW,315,6.0,16.0,72,0.00,,---,0.00,VWS V13.00,2013-02-21 23:44:00,
2013-02-21 18:49:00,21.6,14.0,30.08,NNE,32,6.0,16.0,72,0.00,,---,0.00,VWS V13.00,2013-02-21 23:49:00,
2013-02-21 18:54:00,21.6,14.3,30.08,NNW,331,5.0,16.0,73,0.00,,---,0.00,VWS V13.00,2013-02-21 23:54:00,
2013-02-21 18:59:00,21.5,14.2,30.09,NW,312,3.0,16.0,73,0.00,,---,0.00,VWS V13.00,2013-02-21 23:59:00,
2013-02-21 19:04:00,21.5,14.2,30.09,NW,317,7.0,20.0,73,0.00,,---,0.00,VWS V13.00,2013-02-22 00:04:00,
2013-02-21 19:09:00,21.4,14.1,30.09,WNW,302,3.0,4.0,73,0.00,,---,0.00,VWS V13.00,2013-02-22 00:09:00,
2013-02-21 19:14:00,21.3,14.3,30.09,NNW,342,5.0,10.0,74,0.00,,---,0.00,VWS V13.00,2013-02-22 00:14:00,
2013-02-21 19:19:00,21.4,14.4,30.10,NNW,336,7.0,14.0,74,0.00,,---,0.00,VWS V13.00,2013-02-22 00:19:00,
2013-02-21 19:24:00,21.4,14.4,30.10,NNW,344,5.0,14.0,74,0.00,,---,0.00,VWS V13.00,2013-02-22 00:24:00,
2013-02-21 19:29:00,21.4,14.4,30.10,NNW,331,4.0,16.0,74,0.00,,---,0.00,VWS V13.00,2013-02-22 00:29:00,
2013-02-21 19:34:00,21.5,14.5,30.10,NW,318,3.0,16.0,74,0.00,,---,0.00,VWS V13.00,2013-02-22 00:34:00,
2013-02-21 19:39:00,21.4,14.4,30.11,NW,306,5.0,10.0,74,0.00,,---,0.00,VWS V13.00,2013-02-22 00:39:00,
2013-02-21 19:44:00,21.4,14.7,30.11,NNW,332,7.0,10.0,75,0.00,,---,0.00,VWS V13.00,2013-02-22 00:44:00,
2013-02-21 19:49:00,21.4,14.7,30.11,NW,311,9.0,12.0,75,0.00,,---,0.00,VWS V13.00,2013-02-22 00:49:00,
2013-02-21 19:54:00,21.4,14.7,30.12,NNW,346,11.0,12.0,75,0.00,,---,0.00,VWS V13.00,2013-02-22 00:54:00,
2013-02-21 19:59:00,21.4,14.7,30.12,NW,326,4.0,14.0,75,0.00,,---,0.00,VWS V13.00,2013-02-22 00:59:00,
2013-02-21 20:04:00,21.5,14.8,30.12,NNW,342,5.0,14.0,75,0.00,,---,0.00,VWS V13.00,2013-02-22 01:04:00,
2013-02-21 20:09:00,21.6,15.2,30.12,NNW,340,4.0,11.0,76,0.00,,---,0.00,VWS V13.00,2013-02-22 01:09:00,
2013-02-21 20:14:00,21.6,15.2,30.12,WNW,292,2.0,12.0,76,0.00,,---,0.00,VWS V13.00,2013-02-22 01:14:00,
2013-02-21 20:19:00,21.6,15.2,30.13,NW,317,6.0,18.0,76,0.00,,---,0.00,VWS V13.00,2013-02-22 01:19:00,
2013-02-21 20:24:00,21.8,15.4,30.13,NNW,348,6.0,18.0,76,0.00,,---,0.00,VWS V13.00,2013-02-22 01:24:00,
2013-02-21 20:29:00,21.8,15.4,30.13,NNW,331,3.0,18.0,76,0.00,,---,0.00,VWS V13.00,2013-02-22 01:29:00,
2013-02-21 20:34:00,21.8,15.4,30.13,WNW,300,5.0,18.0,76,0.00,,---,0.00,VWS V13.00,2013-02-22 01:34:00,
2013-02-21 20:39:00,21.8,15.4,30.13,WNW,303,5.0,9.0,76,0.00,,---,0.00,VWS V13.00,2013-02-22 01:39:00,
2013-02-21 20:44:00,21.7,15.3,30.14,NW,306,2.0,9.0,76,0.00,,---,0.00,VWS V13.00,2013-02-22 01:44:00,
2013-02-21 20:49:00,21.6,15.5,30.14,NW,307,5.0,11.0,77,0.00,,---,0.00,VWS V13.00,2013-02-22 01:49:00,
2013-02-21 20:54:00,21.5,15.4,30.14,WNW,294,2.0,11.0,77,0.00,,---,0.00,VWS V13.00,2013-02-22 01:54:00,
2013-02-21 20:59:00,21.5,15.4,30.15,NW,323,3.0,11.0,77,0.00,,---,0.00,VWS V13.00,2013-02-22 01:59:00,
2013-02-21 21:04:00,21.4,15.3,30.15,NNW,337,0.0,11.0,77,0.00,,---,0.00,VWS V13.00,2013-02-22 02:04:00,
2013-02-21 21:09:00,21.5,15.4,30.15,NNW,327,3.0,5.0,77,0.00,,---,0.00,VWS V13.00,2013-02-22 02:09:00,
2013-02-21 21:14:00,21.5,15.4,30.15,NW,323,2.0,9.0,77,0.00,,---,0.00,VWS V13.00,2013-02-22 02:14:00,
2013-02-21 21:19:00,21.3,15.2,30.15,NW,316,4.0,9.0,77,0.00,,---,0.00,VWS V13.00,2013-02-22 02:19:00,
2013-02-21 21:24:00,21.3,15.5,30.15,NNW,331,3.0,9.0,78,0.00,,---,0.00,VWS V13.00,2013-02-22 02:24:00,
2013-02-21 21:29:00,21.2,15.4,30.16,WNW,303,6.0,16.0,78,0.00,,---,0.00,VWS V13.00,2013-02-22 02:29:00,
2013-02-21 21:34:00,21.2,15.4,30.16,NW,322,6.0,16.0,78,0.00,,---,0.00,VWS V13.00,2013-02-22 02:34:00,
2013-02-21 21:39:00,21.1,15.3,30.16,NW,322,4.0,7.0,78,0.00,,---,0.00,VWS V13.00,2013-02-22 02:39:00,
2013-02-21 21:44:00,21.0,15.2,30.15,NNW,342,2.0,11.0,78,0.00,,---,0.00,VWS V13.00,2013-02-22 02:44:00,
2013-02-21 21:49:00,21.0,15.5,30.16,NW,321,14.0,15.0,79,0.00,,---,0.00,VWS V13.00,2013-02-22 02:49:00,
2013-02-21 21:54:00,20.9,15.4,30.16,NW,323,4.0,15.0,79,0.00,,---,0.00,VWS V13.00,2013-02-22 02:54:00,
2013-02-21 21:59:00,20.9,15.4,30.16,NNW,329,5.0,15.0,79,0.00,,---,0.00,VWS V13.00,2013-02-22 02:59:00,
2013-02-21 22:04:00,21.0,15.5,30.16,NNW,331,3.0,15.0,79,0.00,,---,0.00,VWS V13.00,2013-02-22 03:04:00,
2013-02-21 22:09:00,20.9,15.4,30.16,NNW,333,2.0,11.0,79,0.00,,---,0.00,VWS V13.00,2013-02-22 03:09:00,
2013-02-21 22:14:00,20.9,15.4,30.16,NNW,341,2.0,11.0,79,0.00,,---,0.00,VWS V13.00,2013-02-22 03:14:00,
2013-02-21 22:19:00,20.7,15.5,30.16,NW,326,7.0,11.0,80,0.00,,---,0.00,VWS V13.00,2013-02-22 03:19:00,
2013-02-21 22:24:00,20.6,15.4,30.17,NNW,342,2.0,11.0,80,0.00,,---,0.00,VWS V13.00,2013-02-22 03:24:00,
2013-02-21 22:29:00,20.5,15.3,30.17,NW,319,2.0,11.0,80,0.00,,---,0.00,VWS V13.00,2013-02-22 03:29:00,
2013-02-21 22:34:00,20.4,15.2,30.18,NNW,327,4.0,11.0,80,0.00,,---,0.00,VWS V13.00,2013-02-22 03:34:00,
2013-02-21 22:39:00,20.5,15.6,30.18,NW,310,3.0,5.0,81,0.00,,---,0.00,VWS V13.00,2013-02-22 03:39:00,
2013-02-21 22:44:00,20.4,15.5,30.19,NW,323,2.0,7.0,81,0.00,,---,0.00,VWS V13.00,2013-02-22 03:44:00,
2013-02-21 22:49:00,20.3,15.4,30.20,NW,310,2.0,7.0,81,0.00,,---,0.00,VWS V13.00,2013-02-22 03:49:00,
2013-02-21 22:54:00,20.3,15.4,30.21,NW,311,2.0,7.0,81,0.00,,---,0.00,VWS V13.00,2013-02-22 03:54:00,
2013-02-21 22:59:00,20.3,15.4,30.21,WNW,291,3.0,7.0,81,0.00,,---,0.00,VWS V13.00,2013-02-22 03:59:00,
2013-02-21 23:04:00,20.4,15.5,30.22,WNW,291,1.0,7.0,81,0.00,,---,0.00,VWS V13.00,2013-02-22 04:04:00,
2013-02-21 23:09:00,20.5,15.9,30.22,WNW,298,0.0,5.0,82,0.00,,---,0.00,VWS V13.00,2013-02-22 04:09:00,
2013-02-21 23:14:00,20.6,16.0,30.21,NW,319,2.0,12.0,82,0.00,,---,0.00,VWS V13.00,2013-02-22 04:14:00,
2013-02-21 23:19:00,20.7,16.1,30.21,WNW,291,3.0,12.0,82,0.00,,---,0.00,VWS V13.00,2013-02-22 04:19:00,
2013-02-21 23:24:00,20.6,16.0,30.22,NW,310,3.0,12.0,82,0.00,,---,0.00,VWS V13.00,2013-02-22 04:24:00,
2013-02-21 23:29:00,20.5,15.9,30.22,NW,310,1.0,12.0,82,0.00,,---,0.00,VWS V13.00,2013-02-22 04:29:00,
2013-02-21 23:34:00,20.4,15.8,30.23,NNW,333,2.0,12.0,82,0.00,,---,0.00,VWS V13.00,2013-02-22 04:34:00,
2013-02-21 23:39:00,20.6,16.0,30.23,WNW,288,1.0,4.0,82,0.00,,---,0.00,VWS V13.00,2013-02-22 04:39:00,
2013-02-21 23:44:00,20.5,15.9,30.23,NW,304,4.0,7.0,82,0.00,,---,0.00,VWS V13.00,2013-02-22 04:44:00,
2013-02-21 23:49:00,20.6,16.3,30.24,NW,304,1.0,7.0,83,0.00,,---,0.00,VWS V13.00,2013-02-22 04:49:00,
2013-02-21 23:54:00,20.5,16.2,30.24,NW,306,1.0,7.0,83,0.00,,---,0.00,VWS V13.00,2013-02-22 04:54:00,
2013-02-21 23:59:00,20.4,16.1,30.25,NW,306,2.0,7.0,83,0.00,,---,0.00,VWS V13.00,2013-02-22 04:59:00,